PAL124 RPLL-KLAX

Flight info

Callsign PAL124
Flight time N/A
Altitude 37000
Route JOM2R JOM A590 BUBDO/N0494F330 Y527 DOMBI Y57 DOVIX OTR5 KALNA DCT 42N160E 43N170E 44N180W/N0479F350 44N170W 45N160W 45N150W 43N140W/N0471F370 41N130W DCT TRYSH DCT ENI DCT OAK DCT BURGL IRNMN2
Aircraft B77W/H-SDE1E2E3FGHIJ2J3J4J5M1RWXY/LB1D1

Departure

Time N/A
Airport Ninoy Aquino International Airport (RPLL)

Arrival

Time 2026-04-25 08:30
Airport Los Angeles International Airport (KLAX)
Time Latitude Longitude Altitude Speed Heading
2026-04-25 08:15 34.35475 -118.98333 15532 ft 367 kts 149°
2026-04-25 08:15 34.33380 -118.96513 15126 ft 365 kts 148°
2026-04-25 08:16 34.31337 -118.94658 14737 ft 363 kts 147°
2026-04-25 08:16 34.29325 -118.92822 14354 ft 361 kts 147°
2026-04-25 08:16 34.27294 -118.90974 13979 ft 360 kts 148°
2026-04-25 08:16 34.25282 -118.89146 13598 ft 358 kts 148°
2026-04-25 08:17 34.23290 -118.87318 13239 ft 354 kts 147°
2026-04-25 08:17 34.21395 -118.85572 12880 ft 351 kts 147°
2026-04-25 08:17 34.19460 -118.83792 12544 ft 347 kts 147°
2026-04-25 08:17 34.17543 -118.82031 12164 ft 345 kts 147°
2026-04-25 08:18 34.15774 -118.80393 11956 ft 336 kts 144°
2026-04-25 08:18 34.14056 -118.78526 11935 ft 322 kts 141°
2026-04-25 08:18 34.12426 -118.76688 11599 ft 321 kts 141°
2026-04-25 08:18 34.10802 -118.74892 10993 ft 328 kts 141°
2026-04-25 08:19 34.09285 -118.73232 10563 ft 321 kts 141°
2026-04-25 08:19 34.07657 -118.71455 10292 ft 308 kts 141°
2026-04-25 08:19 34.06073 -118.69734 10001 ft 300 kts 141°
2026-04-25 08:19 34.04565 -118.68097 9676 ft 295 kts 139°
2026-04-25 08:20 34.03391 -118.66280 9305 ft 296 kts 116°
2026-04-25 08:20 34.02826 -118.64020 9011 ft 292 kts 101°
2026-04-25 08:20 34.02535 -118.61697 8732 ft 290 kts 98°
2026-04-25 08:20 34.02296 -118.59280 8437 ft 288 kts 97°
2026-04-25 08:21 34.02078 -118.56971 8154 ft 286 kts 97°
2026-04-25 08:21 34.01881 -118.54880 7893 ft 284 kts 96°
2026-04-25 08:21 34.01669 -118.52617 7661 ft 280 kts 96°
2026-04-25 08:21 34.01452 -118.50302 7437 ft 275 kts 96°
2026-04-25 08:22 34.01241 -118.48073 7211 ft 271 kts 96°
2026-04-25 08:22 34.01098 -118.45884 6983 ft 267 kts 85°
2026-04-25 08:22 34.01343 -118.43777 6735 ft 260 kts 77°
2026-04-25 08:22 34.01687 -118.41774 6553 ft 252 kts 77°
2026-04-25 08:23 34.02039 -118.39767 6377 ft 245 kts 77°
2026-04-25 08:23 34.02389 -118.37746 6164 ft 241 kts 77°
2026-04-25 08:23 34.02687 -118.36017 5983 ft 238 kts 77°
2026-04-25 08:23 34.02944 -118.34116 5729 ft 237 kts 83°
2026-04-25 08:24 34.03117 -118.32112 5407 ft 238 kts 83°
2026-04-25 08:24 34.03305 -118.30114 5085 ft 239 kts 83°
2026-04-25 08:24 34.03499 -118.28168 4779 ft 239 kts 83°
2026-04-25 08:24 34.03688 -118.26251 4481 ft 238 kts 85°
2026-04-25 08:25 34.03601 -118.24262 4122 ft 236 kts 107°
2026-04-25 08:25 34.02834 -118.22652 3885 ft 232 kts 133°
2026-04-25 08:25 34.01486 -118.21586 3596 ft 231 kts 159°
2026-04-25 08:25 33.99913 -118.21313 3311 ft 230 kts 183°
2026-04-25 08:26 33.98409 -118.21880 3032 ft 219 kts 208°
2026-04-25 08:26 33.97343 -118.23060 2768 ft 202 kts 233°
2026-04-25 08:26 33.96766 -118.24553 2527 ft 189 kts 255°
2026-04-25 08:26 33.96607 -118.26082 2322 ft 181 kts 264°
2026-04-25 08:27 33.96495 -118.27509 2162 ft 179 kts 263°
2026-04-25 08:27 33.96357 -118.28947 1953 ft 167 kts 262°
2026-04-25 08:27 33.96218 -118.30314 1722 ft 159 kts 262°
2026-04-25 08:27 33.96086 -118.31611 1513 ft 155 kts 262°
2026-04-25 08:28 33.95954 -118.32908 1306 ft 153 kts 262°
2026-04-25 08:28 33.95826 -118.34168 1143 ft 154 kts 262°
2026-04-25 08:28 33.95701 -118.35424 932 ft 152 kts 262°
2026-04-25 08:28 33.95577 -118.36666 707 ft 147 kts 262°
2026-04-25 08:29 33.95444 -118.37890 510 ft 144 kts 262°
2026-04-25 08:29 33.95322 -118.39088 318 ft 142 kts 262°
2026-04-25 08:29 33.95206 -118.40196 151 ft 141 kts 261°
2026-04-25 08:29 33.95100 -118.41258 130 ft 106 kts 262°
2026-04-25 08:30 33.95024 -118.41962 128 ft 62 kts 265°
2026-04-25 08:30 33.94987 -118.42258 127 ft 29 kts 253°
2026-04-25 08:30 33.94889 -118.42440 123 ft 5 kts 226°
2026-04-25 08:30 33.94888 -118.42441 123 ft 0 kts 226°
2026-04-25 08:31 33.94886 -118.42442 123 ft 2 kts 226°
2026-04-25 08:31 33.94852 -118.42474 123 ft 10 kts 209°
2026-04-25 08:31 33.94763 -118.42481 122 ft 16 kts 173°
2026-04-25 08:31 33.94673 -118.42419 122 ft 15 kts 90°
2026-04-25 08:32 33.94678 -118.42292 123 ft 15 kts 83°
2026-04-25 08:32 33.94694 -118.42165 124 ft 15 kts 82°
2026-04-25 08:32 33.94708 -118.42046 126 ft 14 kts 82°
2026-04-25 08:32 33.94721 -118.41924 127 ft 15 kts 83°
2026-04-25 08:33 33.94733 -118.41795 127 ft 15 kts 84°
2026-04-25 08:33 33.94745 -118.41659 127 ft 16 kts 84°
2026-04-25 08:33 33.94757 -118.41519 128 ft 16 kts 84°
2026-04-25 08:33 33.94750 -118.41414 128 ft 10 kts 137°
2026-04-25 08:34 33.94699 -118.41357 127 ft 9 kts 105°
2026-04-25 08:34 33.94667 -118.41292 127 ft 10 kts 156°
2026-04-25 08:34 33.94591 -118.41271 127 ft 11 kts 170°
2026-04-25 08:34 33.94539 -118.41220 127 ft 9 kts 108°
2026-04-25 08:35 33.94527 -118.41156 127 ft 1 kts 99°